Pittsburg, KS

6:26 AM CDT on June 28, 2017 (GMT -0500)
Atkinson Municipal

Weather History for KPTS - May, 2012

Change the Weather History Date:

Sunday, May 27, 2012

  Actual Average (KJLN) Record (KJLN)
Temperature  
Mean Temperature 80 °F -  
Max Temperature 90 °F 78 °F 92 °F (2012)
Min Temperature 70 °F 58 °F 44 °F (1961)
Cooling Degree Days 15    
Growing Degree Days 30 (Base 50)    
Moisture  
Dew Point 63 °F    
Average Humidity 59    
Maximum Humidity 97    
Minimum Humidity 35    
Precipitation  
Precipitation 0.00 in - - ()
Sea Level Pressure  
Sea Level Pressure 29.90 in    
Wind  
Wind Speed 12 mph (SSW)    
Max Wind Speed 24 mph    
Max Gust Speed 33 mph    
Visibility 10 miles    
Events      
Averages and records for this station are not official NWS values.
T = Trace of Precipitation, MM = Missing Value Source: NWS Daily Summary

Daily Weather History Graph

Daily Weather History Graph

Search for Another Location

Airport or City:

Trip Planner

Search our weather history database for the weather conditions in past years. The results will help you decide how hot, cold, wet, or windy it might be!

Date:

Astronomy

May. 27, 2012 Rise Set
Actual Time 6:01 AM CDT 8:31 PM CDT
Civil Twilight 5:31 AM CDT 9:01 PM CDT
Nautical Twilight 4:53 AM CDT 9:38 PM CDT
Astronomical Twilight 4:12 AM CDT 10:20 PM CDT
Moon 12:03 PM CDT (5/27) 12:42 AM CDT (5/27)
Length of Visible Light 15h 30m
Length of Day
14h 29m
Waxing Crescent, 38% of the Moon is Illuminated
May 27
Waxing Crescent
May 28
First Quarter
Jun 4
Full
Jun 11
Last Quarter
Jun 19
New

Hourly Weather History & Observations

Time (CDT) Temp. Heat Index Dew Point Humidity Pressure Visibility Wind Dir Wind Speed Gust Speed Precip Events Conditions
12:15 AM 77.2 °F - 67.6 °F 72% 29.93 in 10.0 mi South 9.2 mph - N/A   Clear
12:35 AM 75.2 °F - 66.9 °F 75% 29.93 in 10.0 mi SSW 8.1 mph - N/A   Clear
12:55 AM 75.2 °F - 67.8 °F 78% 29.94 in 10.0 mi South 8.1 mph - N/A   Clear
1:15 AM 75.2 °F - 68.5 °F 80% 29.94 in 10.0 mi South 6.9 mph - N/A   Clear
1:35 AM 75.2 °F - 69.3 °F 82% 29.94 in 10.0 mi South 8.1 mph - N/A   Clear
1:55 AM 75.2 °F - 69.4 °F 82% 29.94 in 10.0 mi South 9.2 mph - N/A   Clear
2:15 AM 75.2 °F - 69.1 °F 81% 29.94 in 10.0 mi South 9.2 mph 17.3 mph N/A   Clear
2:35 AM 74.7 °F - 69.1 °F 83% 29.95 in 10.0 mi SSW 6.9 mph - N/A   Clear
3:15 AM 71.4 °F - 68.9 °F 92% 29.95 in 10.0 mi SSW 8.1 mph - N/A   Clear
3:35 AM 71.1 °F - 68.5 °F 92% 29.94 in 10.0 mi South 6.9 mph - N/A   Clear
3:55 AM 70.2 °F - 69.1 °F 96% 29.94 in 10.0 mi South 5.8 mph - N/A   Clear
4:15 AM 70.2 °F - 69.3 °F 97% 29.95 in 10.0 mi South 8.1 mph - N/A   Clear
4:35 AM 70.5 °F - 67.6 °F 91% 29.95 in 10.0 mi South 8.1 mph - N/A   Clear
4:55 AM 70.5 °F - 66.9 °F 88% 29.95 in 10.0 mi South 9.2 mph - N/A   Clear
5:15 AM 70.2 °F - 67.3 °F 91% 29.96 in 10.0 mi South 9.2 mph - N/A   Clear
5:35 AM 70.2 °F - 67.5 °F 91% 29.95 in 10.0 mi South 9.2 mph - N/A   Clear
5:55 AM 70.2 °F - 67.3 °F 91% 29.96 in 10.0 mi South 6.9 mph - N/A   Clear
6:15 AM 70.2 °F - 66.6 °F 88% 29.96 in 10.0 mi South 6.9 mph - N/A   Clear
6:35 AM 70.2 °F - 65.5 °F 85% 29.96 in 10.0 mi South 9.2 mph - N/A   Clear
6:55 AM 71.2 °F - 65.3 °F 81% 29.96 in 10.0 mi South 12.7 mph 17.3 mph N/A   Clear
7:15 AM 72.9 °F - 66.0 °F 79% 29.96 in 10.0 mi South 10.4 mph - N/A   Clear
7:35 AM 74.7 °F - 67.3 °F 78% 29.96 in 10.0 mi South 11.5 mph - N/A   Clear
7:55 AM 75.2 °F - 67.5 °F 77% 29.97 in 10.0 mi SSW 11.5 mph 16.1 mph N/A   Clear
8:15 AM 75.2 °F - 66.9 °F 75% 29.97 in 10.0 mi SSW 15.0 mph 25.3 mph N/A   Clear
8:35 AM 75.9 °F - 66.4 °F 72% 29.97 in 10.0 mi SSW 18.4 mph 25.3 mph N/A   Clear
8:55 AM 77.9 °F - 65.7 °F 66% 29.96 in 10.0 mi SSW 17.3 mph 27.6 mph N/A   Clear
9:15 AM 79.5 °F - 65.3 °F 62% 29.96 in 10.0 mi SSW 19.6 mph 29.9 mph N/A   Clear
9:35 AM 80.2 °F 82.0 °F 64.8 °F 59% 29.95 in 10.0 mi SW 20.7 mph 33.4 mph N/A   Clear
9:55 AM 80.4 °F 81.8 °F 63.5 °F 56% 29.94 in 10.0 mi SSW 19.6 mph 29.9 mph N/A   Clear
10:15 AM 80.8 °F 82.0 °F 62.6 °F 54% 29.94 in 10.0 mi SW 21.9 mph 28.8 mph N/A   Clear
10:35 AM 81.9 °F 82.8 °F 62.1 °F 51% 29.94 in 10.0 mi SW 24.2 mph 31.1 mph N/A   Clear
10:55 AM 82.8 °F 83.4 °F 62.1 °F 49% 29.93 in 10.0 mi SW 23.0 mph 29.9 mph N/A   Clear
11:15 AM 83.1 °F 83.5 °F 61.0 °F 47% 29.93 in 10.0 mi SSW 21.9 mph 27.6 mph N/A   Clear
11:35 AM 84.0 °F 84.4 °F 61.3 °F 46% 29.92 in 10.0 mi SSW 19.6 mph 28.8 mph N/A   Clear
11:55 AM 84.9 °F 85.2 °F 61.5 °F 45% 29.92 in 10.0 mi SSW 21.9 mph 31.1 mph N/A   Clear
12:15 PM 86.4 °F 86.5 °F 61.5 °F 43% 29.91 in 10.0 mi SSW 21.9 mph 32.2 mph N/A   Clear
12:35 PM 87.8 °F 87.6 °F 61.0 °F 40% 29.91 in 10.0 mi SSW 21.9 mph 28.8 mph N/A   Clear
12:55 PM 88.3 °F 88.1 °F 60.4 °F 39% 29.90 in 10.0 mi SSW 18.4 mph 27.6 mph N/A   Clear
1:15 PM 90.0 °F 90.0 °F 61.5 °F 38% 29.90 in 10.0 mi SSW 21.9 mph 33.4 mph N/A   Clear
1:35 PM 90.5 °F 90.7 °F 61.5 °F 38% 29.90 in 10.0 mi SSW 16.1 mph 26.5 mph N/A   Clear
1:55 PM 90.5 °F 90.7 °F 61.5 °F 38% 29.89 in 10.0 mi SSW 23.0 mph 27.6 mph N/A   Clear
2:15 PM 90.5 °F 90.7 °F 61.5 °F 38% 29.88 in 10.0 mi SW 17.3 mph 27.6 mph N/A   Clear
2:35 PM 90.5 °F 90.7 °F 61.3 °F 38% 29.88 in 10.0 mi South 17.3 mph 26.5 mph N/A   Clear
2:55 PM 90.5 °F 90.7 °F 61.5 °F 38% 29.87 in 10.0 mi SSW 19.6 mph 25.3 mph N/A   Clear
3:15 PM 90.5 °F 90.7 °F 61.5 °F 38% 29.86 in 10.0 mi SSW 20.7 mph 26.5 mph N/A   Clear
3:35 PM 90.5 °F 91.1 °F 62.2 °F 39% 29.85 in 10.0 mi South 19.6 mph 26.5 mph N/A   Clear
3:55 PM 90.5 °F 91.1 °F 62.6 °F 39% 29.85 in 10.0 mi South 15.0 mph 25.3 mph N/A   Clear
4:15 PM 90.5 °F 90.7 °F 61.9 °F 38% 29.85 in 10.0 mi South 11.5 mph 23.0 mph N/A   Clear
4:35 PM 90.5 °F 90.1 °F 60.3 °F 36% 29.85 in 10.0 mi SSW 17.3 mph 20.7 mph N/A   Clear
4:55 PM 90.5 °F 90.1 °F 60.3 °F 36% 29.85 in 10.0 mi South 19.6 mph 26.5 mph N/A   Clear
5:15 PM 90.5 °F 89.8 °F 59.7 °F 35% 29.85 in 10.0 mi South 16.1 mph 23.0 mph N/A   Clear
5:35 PM 89.4 °F 88.7 °F 59.4 °F 36% 29.85 in 10.0 mi SSW 11.5 mph 18.4 mph N/A   Clear
5:55 PM 88.0 °F 87.1 °F 58.6 °F 37% 29.85 in 10.0 mi South 13.8 mph - N/A   Clear
6:15 PM 84.7 °F 83.9 °F 57.0 °F 39% 29.84 in 10.0 mi South 9.2 mph - N/A   Clear
6:35 PM 84.2 °F 83.5 °F 57.4 °F 40% 29.84 in 10.0 mi SSW 6.9 mph - N/A   Clear
6:55 PM 83.7 °F 83.1 °F 57.6 °F 41% 29.83 in 10.0 mi SSW 10.4 mph - N/A   Clear
7:15 PM 83.1 °F 82.4 °F 56.7 °F 40% 29.82 in 10.0 mi SSW 10.4 mph - N/A   Clear
7:35 PM 82.8 °F 82.2 °F 56.8 °F 41% 29.82 in 10.0 mi SSW 9.2 mph - N/A   Clear
7:55 PM 81.7 °F 81.4 °F 56.7 °F 42% 29.82 in 10.0 mi SSW 9.2 mph - N/A   Clear
8:15 PM 81.0 °F 80.9 °F 56.7 °F 43% 29.81 in 10.0 mi South 10.4 mph - N/A   Clear
8:35 PM 80.2 °F 80.5 °F 57.0 °F 45% 29.81 in 10.0 mi South 8.1 mph - N/A   Clear
8:55 PM 80.2 °F 80.6 °F 57.7 °F 46% 29.80 in 10.0 mi SSW 8.1 mph - N/A   Clear
9:15 PM 79.3 °F - 58.1 °F 48% 29.81 in 10.0 mi SSW 5.8 mph - N/A   Clear
9:35 PM 77.9 °F - 58.3 °F 51% 29.81 in 10.0 mi South 5.8 mph - N/A   Clear
9:55 PM 77.9 °F - 59.0 °F 52% 29.81 in 10.0 mi South 5.8 mph - N/A   Clear
10:15 PM 76.3 °F - 59.5 °F 56% 29.82 in 10.0 mi South 9.2 mph - N/A   Clear
10:35 PM 75.9 °F - 59.7 °F 57% 29.81 in 10.0 mi South 10.4 mph - N/A   Clear
10:55 PM 77.9 °F - 60.1 °F 54% 29.82 in 10.0 mi South 10.4 mph - N/A   Clear
11:15 PM 76.8 °F - 59.0 °F 54% 29.81 in 10.0 mi South 11.5 mph - N/A   Clear
11:35 PM 76.8 °F - 58.5 °F 53% 29.81 in 10.0 mi South 10.4 mph - N/A   Clear
11:55 PM 76.6 °F - 58.3 °F 53% 29.80 in 10.0 mi South 11.5 mph 18.4 mph N/A   Clear